QPF
0.00 0.00 0.01 0.00 0.01 0.01 0.01 0.01 0.01 0.01 0.00 0.00 0.00 0.00 0.00 0.00 0.00 0.00 0.01 0.01 0.01 0.01 0.00 0.01 0.01 0.01 0.01 0.02 0.01 0.01 0.01 0.01 0.02 0.02 0.03 0.04 0.05 0.05
0.00 0.00 0.00 0.00 0.00 0.00 0.01 0.01 0.01 0.01 0.00 0.00 0.00 0.00 0.00 0.00 0.00 0.00 0.01 0.01 0.01 0.01 0.01 0.01 0.01 0.01 0.01 0.01 0.01 0.01 0.01 0.01 0.02 0.02 0.02 0.03 0.04 0.04
0.00 0.00 0.00 0.01 0.00 0.01 0.01 0.01 0.01 0.01 0.00 0.00 0.00 0.00 0.00 0.00 0.00 0.00 0.01 0.01 0.01 0.01 0.02 0.02 0.02 0.02 0.02 0.01 0.01 0.01 0.01 0.01 0.02 0.02 0.02 0.02 0.04 0.05
0.00 0.00 0.00 0.00 0.00 0.01 0.01 0.01 0.01 0.01 0.00 0.00 0.00 0.00 0.00 0.00 0.00 0.00 0.01 0.01 0.01 0.02 0.03 0.03 0.04 0.04 0.03 0.02 0.02 0.01 0.01 0.01 0.01 0.01 0.02 0.03 0.04 0.06
0.00 0.00 0.00 0.00 0.00 0.01 0.01 0.01 0.01 0.00 0.00 0.01 0.00 0.00 0.00 0.01 0.01 0.01 0.01 0.01 0.02 0.02 0.03 0.04 0.07 0.06 0.05 0.04 0.03 0.02 0.01 0.01 0.01 0.01 0.02 0.03 0.05 0.06
0.01 0.01 0.01 0.01 0.01 0.01 0.01 0.01 0.01 0.00 0.00 0.00 0.01 0.01 0.01 0.01 0.02 0.01 0.01 0.01 0.01 0.02 0.02 0.04 0.06 0.09 0.07 0.07 0.05 0.03 0.02 0.01 0.01 0.01 0.02 0.04 0.04 0.05
0.01 0.01 0.01 0.02 0.01 0.02 0.01 0.01 0.01 0.00 0.00 0.01 0.01 0.01 0.01 0.01 0.01 0.01 0.01 0.01 0.01 0.01 0.01 0.02 0.04 0.05 0.05 0.07 0.08 0.05 0.03 0.01 0.01 0.01 0.02 0.03 0.03 0.05
0.02 0.02 0.03 0.03 0.02 0.02 0.02 0.01 0.01 0.01 0.01 0.01 0.01 0.01 0.00 0.00 0.01 0.01 0.01 0.01 0.01 0.02 0.02 0.02 0.03 0.04 0.04 0.05 0.07 0.06 0.03 0.01 0.01 0.01 0.01 0.02 0.03 0.04
0.04 0.02 0.02 0.02 0.02 0.02 0.02 0.01 0.02 0.02 0.01 0.01 0.01 0.00 0.00 0.00 0.00 0.00 0.00 0.00 0.01 0.01 0.02 0.02 0.02 0.03 0.04 0.04 0.04 0.04 0.02 0.01 0.01 0.01 0.01 0.02 0.03 0.02
0.07 0.04 0.02 0.02 0.02 0.02 0.02 0.02 0.02 0.01 0.01 0.01 0.00 0.00 0.00 0.00 0.00 0.00 0.00 0.00 0.00 0.00 0.01 0.01 0.01 0.02 0.03 0.04 0.03 0.02 0.01 0.01 0.01 0.01 0.01 0.02 0.02 0.02
0.08 0.06 0.05 0.03 0.03 0.03 0.02 0.02 0.01 0.01 0.01 0.01 0.01 0.00 0.00 0.00 0.00 0.00 0.01 0.01 0.01 0.01 0.00 0.01 0.01 0.01 0.01 0.02 0.03 0.03 0.02 0.01 0.01 0.01 0.01 0.01 0.01 0.01
0.10 0.08 0.07 0.06 0.05 0.03 0.02 0.02 0.01 0.01 0.02 0.02 0.01 0.01 0.01 0.01 0.01 0.01 0.01 0.01 0.01 0.01 0.00 0.01 0.01 0.01 0.01 0.02 0.02 0.02 0.01 0.01 0.01 0.01 0.01 0.00 0.01 0.01
0.07 0.07 0.06 0.06 0.06 0.06 0.04 0.02 0.02 0.01 0.01 0.02 0.01 0.01 0.01 0.01 0.01 0.01 0.01 0.01 0.01 0.01 0.02 0.01 0.01 0.01 0.01 0.02 0.02 0.02 0.01 0.02 0.02 0.02 0.01 0.01 0.00 0.00
0.05 0.06 0.05 0.04 0.05 0.05 0.04 0.04 0.03 0.02 0.01 0.01 0.01 0.01 0.01 0.01 0.01 0.01 0.01 0.01 0.01 0.01 0.01 0.02 0.02 0.02 0.01 0.01 0.02 0.02 0.02 0.02 0.02 0.01 0.01 0.01 0.01 0.00
0.05 0.05 0.05 0.04 0.04 0.03 0.03 0.03 0.03 0.02 0.02 0.01 0.01 0.01 0.01 0.01 0.01 0.01 0.01 0.01 0.01 0.01 0.01 0.01 0.01 0.02 0.02 0.01 0.01 0.02 0.02 0.02 0.02 0.01 0.01 0.00 0.00 0.00
0.04 0.07 0.06 0.04 0.02 0.02 0.02 0.02 0.02 0.02 0.03 0.03 0.02 0.01 0.01 0.01 0.01 0.01 0.01 0.01 0.01 0.01 0.01 0.01 0.01 0.01 0.01 0.01 0.01 0.02 0.02 0.02 0.02 0.01 0.01 0.00 0.00 0.00
0.05 0.06 0.05 0.03 0.02 0.01 0.02 0.01 0.01 0.02 0.03 0.03 0.03 0.03 0.02 0.01 0.01 0.01 0.01 0.01 0.01 0.01 0.01 0.01 0.01 0.01 0.01 0.01 0.01 0.01 0.01 0.01 0.01 0.01 0.01 0.01 0.01 0.01
0.05 0.05 0.04 0.03 0.02 0.02 0.02 0.02 0.02 0.02 0.03 0.03 0.03 0.03 0.03 0.04 0.03 0.03 0.02 0.02 0.01 0.01 0.01 0.01 0.00 0.01 0.00 0.01 0.01 0.00 0.00 0.00 0.01 0.01 0.01 0.01 0.01 0.01
0.03 0.03 0.03 0.03 0.04 0.04 0.04 0.04 0.04 0.03 0.03 0.02 0.02 0.02 0.03 0.04 0.05 0.06 0.06 0.04 0.03 0.02 0.01 0.01 0.00 0.00 0.01 0.01 0.01 0.00 0.00 0.01 0.01 0.01 0.01 0.01 0.01 0.01
0.03 0.03 0.03 0.03 0.03 0.03 0.02 0.03 0.03 0.04 0.03 0.02 0.02 0.02 0.03 0.03 0.04 0.04 0.05 0.05 0.05 0.04 0.03 0.02 0.01 0.01 0.01 0.01 0.01 0.01 0.01 0.01 0.01 0.01 0.02 0.02 0.02 0.02
0.02 0.02 0.02 0.02 0.02 0.02 0.01 0.01 0.01 0.01 0.01 0.01 0.01 0.01 0.01 0.01 0.01 0.01 0.01 0.02 0.03 0.03 0.02 0.02 0.02 0.02 0.02 0.01 0.01 0.01 0.01 0.01 0.01 0.02 0.02 0.02 0.02 0.02
0.02 0.02 0.02 0.01 0.01 0.01 0.01 0.01 0.01 0.01 0.01 0.01 0.01 0.01 0.01 0.02 0.02 0.02 0.02 0.02 0.02 0.02 0.01 0.01 0.01 0.02 0.02 0.02 0.02 0.01 0.01 0.01 0.01 0.02 0.02 0.02 0.02 0.02
0.01 0.02 0.02 0.02 0.01 0.01 0.01 0.02 0.02 0.02 0.01 0.01 0.01 0.01 0.01 0.01 0.01 0.01 0.02 0.02 0.02 0.02 0.03 0.03 0.02 0.02 0.02 0.02 0.02 0.01 0.01 0.01 0.01 0.02 0.02 0.02 0.02 0.02
MSLP
1015.06 1015.40 1015.75 1016.08 1016.37 1016.58 1016.71 1016.76 1016.74 1016.67 1016.59 1016.52 1016.50 1016.53 1016.61 1016.75 1016.94 1017.16 1017.40 1017.66 1017.94 1018.23 1018.52 1018.83 1019.14 1019.44 1019.74 1020.02 1020.28 1020.52 1020.74 1020.96 1021.18 1021.41 1021.66 1021.92 1022.19 1022.45
1014.30 1014.59 1014.91 1015.24 1015.53 1015.78 1015.96 1016.08 1016.14 1016.17 1016.17 1016.17 1016.18 1016.23 1016.30 1016.42 1016.56 1016.73 1016.94 1017.17 1017.44 1017.73 1018.06 1018.41 1018.78 1019.14 1019.49 1019.83 1020.13 1020.40 1020.65 1020.89 1021.12 1021.36 1021.60 1021.86 1022.12 1022.37
1013.53 1013.75 1014.02 1014.31 1014.60 1014.87 1015.11 1015.31 1015.47 1015.60 1015.72 1015.82 1015.91 1016.01 1016.11 1016.22 1016.34 1016.47 1016.64 1016.83 1017.07 1017.35 1017.68 1018.04 1018.42 1018.81 1019.19 1019.55 1019.88 1020.17 1020.44 1020.69 1020.94 1021.18 1021.44 1021.69 1021.95 1022.20
1012.84 1012.96 1013.14 1013.37 1013.63 1013.90 1014.17 1014.44 1014.71 1014.95 1015.19 1015.41 1015.60 1015.78 1015.94 1016.08 1016.21 1016.33 1016.47 1016.63 1016.83 1017.08 1017.37 1017.71 1018.08 1018.46 1018.83 1019.19 1019.52 1019.82 1020.09 1020.35 1020.61 1020.87 1021.13 1021.40 1021.67 1021.92
1012.26 1012.27 1012.35 1012.49 1012.68 1012.92 1013.20 1013.51 1013.83 1014.17 1014.51 1014.85 1015.16 1015.43 1015.67 1015.87 1016.04 1016.18 1016.32 1016.46 1016.64 1016.85 1017.11 1017.40 1017.72 1018.06 1018.40 1018.72 1019.03 1019.31 1019.58 1019.85 1020.11 1020.39 1020.67 1020.96 1021.24 1021.51
1011.86 1011.74 1011.70 1011.72 1011.82 1011.99 1012.22 1012.51 1012.85 1013.24 1013.64 1014.06 1014.46 1014.84 1015.17 1015.45 1015.68 1015.87 1016.04 1016.20 1016.37 1016.56 1016.78 1017.03 1017.30 1017.58 1017.86 1018.13 1018.40 1018.65 1018.91 1019.17 1019.45 1019.74 1020.05 1020.37 1020.68 1020.97
1011.62 1011.38 1011.21 1011.11 1011.08 1011.14 1011.27 1011.49 1011.79 1012.15 1012.57 1013.02 1013.48 1013.92 1014.33 1014.70 1015.01 1015.27 1015.50 1015.70 1015.89 1016.09 1016.29 1016.50 1016.72 1016.95 1017.18 1017.40 1017.62 1017.85 1018.09 1018.35 1018.63 1018.95 1019.28 1019.63 1019.98 1020.31
1011.52 1011.18 1010.89 1010.66 1010.49 1010.40 1010.40 1010.50 1010.69 1010.97 1011.33 1011.76 1012.22 1012.69 1013.15 1013.58 1013.97 1014.32 1014.62 1014.89 1015.13 1015.35 1015.57 1015.77 1015.97 1016.16 1016.35 1016.53 1016.72 1016.92 1017.15 1017.41 1017.70 1018.04 1018.40 1018.78 1019.17 1019.53
1011.51 1011.09 1010.70 1010.35 1010.04 1009.80 1009.64 1009.58 1009.62 1009.77 1010.02 1010.36 1010.77 1011.22 1011.69 1012.16 1012.60 1013.02 1013.41 1013.75 1014.06 1014.34 1014.59 1014.82 1015.02 1015.21 1015.38 1015.55 1015.72 1015.91 1016.14 1016.40 1016.71 1017.06 1017.45 1017.86 1018.27 1018.67
1011.51 1011.04 1010.57 1010.12 1009.70 1009.32 1009.01 1008.78 1008.65 1008.64 1008.74 1008.95 1009.26 1009.64 1010.08 1010.55 1011.02 1011.49 1011.94 1012.36 1012.75 1013.09 1013.40 1013.67 1013.91 1014.11 1014.30 1014.48 1014.66 1014.86 1015.09 1015.37 1015.69 1016.06 1016.46 1016.89 1017.32 1017.73
1011.44 1010.94 1010.43 1009.92 1009.41 1008.93 1008.49 1008.12 1007.84 1007.66 1007.61 1007.67 1007.85 1008.14 1008.50 1008.93 1009.40 1009.88 1010.37 1010.84 1011.29 1011.70 1012.07 1012.40 1012.68 1012.93 1013.15 1013.36 1013.56 1013.79 1014.04 1014.33 1014.66 1015.04 1015.45 1015.88 1016.32 1016.74
1011.27 1010.75 1010.22 1009.67 1009.12 1008.57 1008.04 1007.57 1007.17 1006.86 1006.67 1006.59 1006.65 1006.82 1007.09 1007.45 1007.87 1008.34 1008.83 1009.32 1009.81 1010.26 1010.68 1011.06 1011.40 1011.70 1011.96 1012.21 1012.45 1012.70 1012.98 1013.28 1013.62 1014.00 1014.41 1014.83 1015.26 1015.68
1010.97 1010.43 1009.88 1009.32 1008.75 1008.18 1007.62 1007.09 1006.61 1006.22 1005.92 1005.74 1005.68 1005.74 1005.91 1006.19 1006.54 1006.96 1007.42 1007.90 1008.38 1008.86 1009.30 1009.72 1010.10 1010.44 1010.75 1011.04 1011.31 1011.59 1011.88 1012.20 1012.54 1012.92 1013.31 1013.72 1014.13 1014.53
1010.57 1009.99 1009.43 1008.86 1008.29 1007.72 1007.15 1006.61 1006.11 1005.68 1005.32 1005.07 1004.92 1004.89 1004.97 1005.15 1005.42 1005.76 1006.16 1006.60 1007.05 1007.51 1007.96 1008.38 1008.78 1009.15 1009.49 1009.81 1010.12 1010.42 1010.73 1011.05 1011.39 1011.75 1012.13 1012.52 1012.91 1013.30
1010.13 1009.50 1008.89 1008.31 1007.73 1007.17 1006.62 1006.09 1005.60 1005.17 1004.80 1004.51 1004.31 1004.21 1004.20 1004.29 1004.47 1004.73 1005.04 1005.40 1005.80 1006.21 1006.63 1007.04 1007.44 1007.82 1008.18 1008.53 1008.85 1009.17 1009.49 1009.82 1010.15 1010.49 1010.85 1011.21 1011.59 1011.96
1009.76 1009.04 1008.36 1007.74 1007.14 1006.57 1006.04 1005.53 1005.07 1004.64 1004.28 1003.97 1003.74 1003.59 1003.52 1003.52 1003.61 1003.76 1003.98 1004.26 1004.57 1004.92 1005.29 1005.68 1006.06 1006.44 1006.81 1007.16 1007.51 1007.84 1008.17 1008.49 1008.82 1009.15 1009.49 1009.84 1010.19 1010.55
1009.56 1008.73 1007.96 1007.26 1006.62 1006.03 1005.48 1004.98 1004.52 1004.11 1003.74 1003.43 1003.17 1002.97 1002.83 1002.76 1002.75 1002.80 1002.92 1003.10 1003.32 1003.60 1003.91 1004.26 1004.62 1004.99 1005.36 1005.73 1006.09 1006.44 1006.78 1007.11 1007.44 1007.76 1008.09 1008.42 1008.76 1009.12
1009.63 1008.68 1007.81 1007.02 1006.30 1005.65 1005.07 1004.54 1004.06 1003.63 1003.24 1002.90 1002.59 1002.33 1002.12 1001.96 1001.85 1001.80 1001.80 1001.88 1002.02 1002.22 1002.47 1002.77 1003.11 1003.48 1003.86 1004.25 1004.63 1005.01 1005.37 1005.72 1006.06 1006.38 1006.71 1007.04 1007.38 1007.73
1010.04 1008.99 1008.02 1007.12 1006.31 1005.58 1004.92 1004.33 1003.79 1003.30 1002.86 1002.44 1002.07 1001.72 1001.41 1001.14 1000.91 1000.75 1000.64 1000.61 1000.66 1000.78 1000.98 1001.25 1001.57 1001.94 1002.34 1002.75 1003.17 1003.58 1003.98 1004.36 1004.72 1005.07 1005.40 1005.74 1006.08 1006.44
1010.79 1009.67 1008.61 1007.63 1006.72 1005.89 1005.14 1004.45 1003.82 1003.23 1002.68 1002.17 1001.68 1001.21 1000.76 1000.36 1000.00 999.70 999.47 999.33 999.28 999.33 999.47 999.70 1000.02 1000.39 1000.81 1001.27 1001.73 1002.19 1002.63 1003.05 1003.45 1003.83 1004.19 1004.55 1004.91 1005.29
1011.83 1010.68 1009.58 1008.52 1007.53 1006.61 1005.75 1004.95 1004.20 1003.48 1002.80 1002.14 1001.49 1000.87 1000.27 999.70 999.18 998.73 998.36 998.09 997.94 997.90 997.99 998.18 998.48 998.87 999.31 999.80 1000.31 1000.82 1001.31 1001.79 1002.24 1002.66 1003.07 1003.47 1003.86 1004.27
1013.06 1011.93 1010.81 1009.73 1008.68 1007.68 1006.72 1005.80 1004.91 1004.05 1003.21 1002.38 1001.56 1000.76 999.97 999.22 998.53 997.91 997.38 996.97 996.70 996.57 996.58 996.73 997.00 997.38 997.84 998.35 998.90 999.45 1000.00 1000.53 1001.04 1001.52 1001.99 1002.44 1002.89 1003.35
1014.35 1013.26 1012.17 1011.08 1010.00 1008.94 1007.90 1006.88 1005.87 1004.87 1003.87 1002.87 1001.87 1000.87 999.89 998.95 998.07 997.27 996.58 996.02 995.62 995.38 995.30 995.38 995.60 995.95 996.40 996.92 997.48 998.08 998.67 999.25 999.81 1000.36 1000.89 1001.42 1001.95 1002.48
Thickness
5658 5655 5653 5651 5649 5647 5645 5642 5636 5632 5631 5632 5632 5633 5633 5633 5633 5633 5633 5633 5633 5634 5635 5636 5636 5636 5635 5635 5634 5634 5633 5632 5632 5633 5633 5633 5633 5633
5654 5651 5649 5647 5645 5643 5641 5638 5635 5631 5627 5628 5627 5627 5627 5628 5628 5628 5627 5627 5627 5628 5629 5629 5630 5630 5629 5628 5628 5627 5626 5626 5626 5626 5626 5626 5626 5626
5650 5647 5645 5643 5640 5638 5635 5633 5630 5628 5624 5623 5622 5622 5622 5622 5622 5622 5622 5622 5621 5621 5622 5622 5623 5623 5623 5622 5622 5621 5621 5620 5619 5619 5619 5619 5620 5620
5645 5643 5640 5639 5636 5633 5631 5628 5626 5624 5621 5618 5616 5616 5616 5616 5616 5616 5616 5616 5615 5615 5615 5615 5616 5616 5616 5616 5615 5615 5614 5613 5613 5612 5613 5613 5613 5614
5641 5639 5637 5634 5631 5629 5627 5624 5622 5620 5617 5614 5612 5610 5609 5609 5609 5609 5609 5608 5609 5608 5608 5608 5608 5608 5609 5609 5609 5608 5608 5607 5607 5606 5606 5606 5607 5607
5636 5635 5633 5631 5629 5626 5624 5621 5618 5615 5612 5609 5606 5604 5603 5602 5602 5601 5601 5601 5601 5601 5601 5600 5600 5601 5601 5602 5602 5602 5601 5601 5601 5600 5600 5600 5600 5600
5630 5629 5629 5627 5626 5624 5622 5618 5615 5611 5607 5604 5601 5599 5597 5595 5595 5595 5594 5594 5593 5593 5593 5593 5593 5594 5594 5594 5595 5595 5595 5594 5594 5594 5594 5594 5594 5594
5623 5623 5623 5622 5621 5620 5618 5616 5614 5609 5605 5601 5597 5595 5594 5592 5591 5589 5587 5586 5586 5586 5585 5584 5585 5586 5587 5587 5588 5588 5588 5588 5588 5588 5588 5588 5588 5588
5617 5617 5617 5617 5615 5613 5612 5611 5609 5607 5606 5602 5597 5595 5593 5591 5588 5585 5582 5581 5580 5579 5578 5577 5578 5578 5580 5580 5581 5581 5581 5581 5581 5580 5580 5580 5580 5581
5612 5612 5611 5610 5610 5608 5606 5603 5602 5601 5600 5598 5597 5595 5593 5590 5587 5584 5581 5576 5574 5572 5572 5570 5571 5571 5573 5573 5574 5574 5574 5574 5574 5573 5573 5573 5573 5574
5605 5605 5605 5604 5604 5602 5600 5598 5596 5595 5595 5594 5593 5590 5588 5586 5583 5578 5574 5571 5569 5567 5565 5564 5565 5564 5565 5566 5567 5567 5567 5567 5567 5566 5566 5566 5566 5566
5597 5597 5598 5598 5598 5596 5594 5592 5590 5589 5588 5587 5585 5583 5581 5579 5577 5574 5571 5567 5564 5562 5561 5559 5558 5557 5558 5560 5559 5559 5559 5559 5559 5559 5559 5559 5559 5558
5590 5590 5591 5591 5591 5590 5588 5586 5585 5584 5581 5579 5577 5575 5573 5571 5570 5568 5566 5564 5562 5560 5558 5555 5553 5551 5551 5551 5552 5551 5551 5551 5551 5552 5552 5552 5552 5551
5583 5583 5584 5584 5584 5583 5581 5580 5578 5576 5573 5570 5569 5567 5565 5564 5563 5562 5560 5559 5558 5557 5556 5553 5550 5547 5545 5544 5544 5544 5544 5544 5543 5544 5544 5545 5544 5544
5575 5576 5576 5576 5575 5574 5573 5571 5569 5567 5565 5563 5562 5561 5559 5558 5556 5555 5553 5552 5551 5550 5549 5547 5546 5543 5541 5539 5538 5537 5536 5537 5536 5536 5536 5536 5537 5536
5566 5566 5566 5565 5565 5564 5563 5561 5560 5558 5557 5556 5555 5554 5552 5550 5548 5547 5545 5544 5542 5541 5541 5540 5539 5537 5535 5534 5532 5531 5530 5529 5529 5529 5529 5529 5529 5529
5557 5556 5555 5554 5553 5553 5552 5551 5550 5549 5548 5547 5546 5544 5543 5542 5540 5538 5537 5535 5533 5533 5532 5531 5531 5530 5529 5528 5526 5526 5524 5523 5523 5522 5521 5522 5523 5523
5547 5546 5545 5545 5545 5544 5543 5542 5541 5540 5539 5539 5538 5536 5534 5533 5531 5529 5528 5527 5526 5525 5524 5523 5521 5521 5520 5520 5520 5520 5518 5517 5516 5515 5513 5514 5516 5517
5537 5537 5536 5536 5535 5535 5534 5533 5532 5531 5530 5529 5529 5528 5526 5524 5523 5521 5520 5519 5519 5518 5517 5515 5513 5513 5513 5514 5514 5513 5511 5510 5508 5507 5507 5507 5509 5511
5527 5527 5527 5526 5525 5525 5524 5523 5523 5522 5521 5520 5519 5518 5517 5516 5515 5514 5513 5512 5512 5511 5509 5508 5507 5506 5507 5507 5506 5505 5504 5503 5502 5501 5500 5500 5500 5502
5517 5517 5517 5516 5516 5515 5514 5514 5513 5513 5512 5511 5511 5510 5509 5507 5507 5506 5505 5505 5504 5503 5503 5502 5501 5500 5498 5496 5496 5497 5496 5496 5496 5494 5493 5492 5492 5494
5507 5507 5507 5507 5506 5505 5505 5504 5503 5503 5503 5502 5501 5501 5500 5500 5499 5498 5498 5497 5497 5496 5496 5495 5493 5491 5490 5489 5490 5489 5488 5488 5487 5487 5487 5487 5485 5487
5497 5497 5497 5497 5497 5496 5496 5495 5495 5494 5493 5493 5492 5492 5491 5491 5491 5491 5490 5489 5489 5488 5487 5486 5484 5483 5482 5482 5481 5480 5480 5479 5479 5478 5479 5479 5479 5480